Wind_Speed
17 18 19 20 22 23 24 24 26 28 29 26 25 25 25 26 27 27 27 26 26 26 26 26 26 26 26 27 28 28 29 29 30 30 31 32 32 33 33 34 35 35 35 35
18 19 20 20 20 21 21 22 24 25 26 25 23 23 24 25 25 24 24 24 24 24 23 24 24 24 25 25 26 27 27 28 29 29 30 30 31 31 31 31 32 32 31 31
17 18 18 18 18 18 19 20 22 23 23 24 22 22 23 23 23 23 22 22 22 22 21 21 22 22 23 24 24 25 26 27 27 28 29 29 29 29 30 30 29 29 28 27
16 16 16 15 17 17 18 19 20 20 21 21 21 21 22 22 22 22 21 20 19 19 19 19 20 20 21 22 22 23 24 25 25 26 26 27 27 27 27 27 27 26 25 25
15 15 14 14 15 16 17 17 18 18 19 19 20 21 21 21 20 20 19 18 17 17 17 17 18 19 19 20 20 21 22 22 23 23 24 24 24 25 25 25 25 24 24 23
15 15 14 13 15 16 16 17 17 18 18 19 20 20 20 20 19 18 18 17 16 16 16 17 17 17 18 18 18 19 20 20 21 21 21 22 22 22 23 23 23 22 22 21
16 15 14 14 16 16 17 16 16 17 18 18 19 19 20 20 19 18 18 17 17 16 16 16 16 17 17 17 18 18 19 19 20 20 20 21 21 22 22 22 21 21 20 20
17 17 16 16 17 17 16 16 17 17 18 18 19 20 20 20 20 19 18 18 17 16 16 16 16 16 16 17 17 18 18 19 19 20 20 21 21 22 21 21 21 20 20 20
18 18 18 18 18 18 18 18 18 18 19 19 20 20 21 21 21 20 19 19 18 17 17 17 17 17 17 18 18 18 18 19 19 19 20 21 21 21 21 21 21 21 21 21
19 20 20 20 20 20 21 21 21 21 20 20 20 20 21 21 21 21 21 20 19 19 18 18 18 18 18 19 19 19 19 19 19 20 20 21 21 21 21 22 22 22 22 23
21 21 22 22 22 22 22 22 23 23 23 22 22 22 22 22 22 22 22 22 21 20 20 19 19 19 19 19 20 20 20 20 20 21 21 22 22 22 22 23 23 23 24 24
24 24 25 24 23 23 24 24 24 24 25 25 24 24 24 24 24 23 23 23 23 22 21 21 20 21 21 21 21 21 21 21 22 22 22 23 23 23 24 24 25 25 26 26
26 26 26 25 25 25 25 25 26 26 26 27 26 26 25 25 25 25 25 25 24 23 23 22 22 22 22 22 22 23 23 23 23 24 24 24 25 25 26 26 26 27 28 28
27 27 27 26 26 26 26 26 27 27 28 28 28 28 27 27 26 26 26 25 25 25 24 24 23 23 23 23 24 24 25 25 25 25 26 26 27 27 27 28 28 29 30 30
28 27 26 26 26 25 25 26 26 26 27 28 29 29 29 28 28 28 27 27 26 26 26 25 25 25 25 25 25 26 26 26 27 27 27 28 28 28 29 29 30 30 31 32
27 27 27 26 25 25 25 25 25 26 26 27 28 29 30 30 30 30 29 29 28 28 27 27 27 27 26 26 26 27 27 28 28 28 28 29 29 29 30 30 31 31 32 33
25 26 26 26 25 25 25 25 25 25 26 27 27 28 29 30 30 31 31 30 30 29 29 29 29 28 28 28 28 28 29 29 29 29 30 30 30 31 31 32 32 33 34 34
23 24 24 24 24 25 25 25 25 26 26 27 27 28 28 29 29 30 31 31 31 31 31 30 30 30 30 29 29 29 30 30 30 30 31 31 31 31 32 33 33 34 34 35
21 22 22 23 23 24 24 25 25 26 26 27 27 28 28 29 29 30 30 31 31 31 31 31 31 31 31 30 30 30 30 31 31 31 31 32 32 33 33 34 34 34 35 35
18 19 20 21 22 23 23 23 24 24 25 25 26 27 28 28 29 29 30 30 30 30 31 31 31 31 31 31 31 31 31 31 32 32 33 33 34 34 34 34 34 34 35 36
17 18 19 19 20 20 20 21 21 22 23 23 24 25 25 26 27 28 29 29 30 30 30 31 31 31 31 31 31 31 31 32 32 33 34 34 34 34 34 34 34 35 35 36
17 17 17 18 18 19 19 19 19 20 20 21 21 22 23 24 25 26 27 28 29 29 30 30 31 31 32 32 32 32 32 33 33 34 34 34 35 34 34 34 35 35 36 37
17 17 17 17 18 18 18 18 18 18 18 18 19 20 20 21 22 23 24 26 27 28 29 30 30 31 31 32 32 32 33 34 34 34 34 34 34 33 33 34 34 35 36 37
19 19 19 19 19 19 20 20 19 19 19 19 20 20 20 21 21 22 23 24 25 26 27 28 29 29 30 31 32 32 33 33 34 34 33 33 33 33 34 34 35 36 37 37
22 22 22 22 22 21 21 21 20 21 21 21 21 21 22 22 22 23 23 24 24 25 25 26 26 26 27 28 30 31 31 31 31 32 32 32 32 33 34 35 36 36 37 38
25 24 24 24 23 23 23 22 22 23 23 24 24 24 24 24 24 24 23 24 24 24 24 25 25 26 27 28 29 29 29 30 30 31 31 32 32 32 33 34 35 36 36 37
27 27 27 26 26 26 26 26 26 27 27 27 27 26 25 25 24 24 24 25 25 25 26 26 26 26 27 27 27 28 28 29 29 30 30 31 32 32 33 34 35 35 35 36
Wind_Direction
233 233 233 235 237 237 235 233 232 234 238 239 238 238 239 239 240 242 244 246 249 252 255 258 263 267 271 274 277 279 281 282 283 285 288 290 293 296 300 304 307 310 312 314
235 236 236 238 239 238 235 233 232 233 237 240 238 235 237 239 241 243 246 248 251 254 258 262 266 270 274 277 279 282 283 283 284 286 288 291 294 297 302 306 310 313 315 317
235 237 237 235 236 235 233 231 231 231 234 236 233 233 235 238 241 243 245 247 250 253 258 263 268 273 276 280 283 285 285 286 286 287 289 291 294 298 303 306 311 314 317 319
236 237 237 234 233 232 230 230 231 231 232 234 233 234 235 237 237 238 240 242 247 252 259 267 273 278 281 283 285 288 288 288 288 290 291 293 296 300 303 306 310 314 317 321
237 238 236 233 232 232 231 231 231 232 233 233 234 235 234 234 234 235 237 242 249 257 265 272 278 282 285 286 288 291 291 290 291 292 294 296 299 302 304 307 311 314 315 319
241 241 240 233 235 234 234 234 234 236 237 236 235 235 233 232 233 235 239 245 252 260 268 275 280 283 287 289 289 292 292 292 293 295 297 299 302 305 307 309 311 314 317 320
243 244 243 238 238 238 239 240 240 240 240 239 237 236 234 232 234 238 242 248 254 261 269 276 281 284 287 288 289 291 292 294 295 297 298 301 304 306 309 311 313 315 318 320
247 246 246 244 243 243 245 244 243 243 242 240 239 237 236 235 238 241 245 250 255 262 270 275 280 284 287 288 289 291 293 294 295 298 300 301 304 307 309 311 313 315 317 318
248 248 247 247 247 246 246 246 246 244 242 242 241 240 239 240 241 244 248 252 256 263 270 275 279 282 285 287 288 291 293 296 297 298 300 302 305 308 310 311 312 314 315 315
249 249 249 250 250 248 248 248 247 246 244 244 244 244 244 243 244 246 249 252 257 263 270 275 278 281 284 285 286 289 292 294 297 299 301 303 305 308 309 310 311 312 312 312
252 251 250 250 251 251 250 249 248 247 246 245 246 247 247 247 248 249 250 253 257 262 269 273 277 280 282 283 284 287 290 293 296 299 301 302 303 305 307 308 309 310 310 311
252 252 251 251 252 252 251 250 249 248 247 246 248 249 248 249 250 251 252 254 257 262 267 272 275 278 280 281 282 285 288 291 294 298 300 301 301 303 304 305 306 307 308 309
253 253 253 252 251 252 252 251 250 249 248 248 248 250 250 251 252 252 254 255 258 261 266 270 274 276 278 279 280 283 286 289 291 294 296 298 299 300 302 303 305 305 306 308
251 251 252 252 251 251 252 251 250 250 249 249 249 250 251 251 252 253 254 256 258 260 263 267 271 274 276 278 279 281 284 286 289 291 293 295 297 298 299 301 303 304 305 307
251 251 251 251 251 251 251 251 251 251 251 250 250 250 251 251 252 253 254 256 257 259 262 265 268 271 274 276 278 280 282 284 286 288 291 294 296 298 299 301 302 304 305 306
250 250 250 250 250 250 251 252 253 254 254 254 253 252 251 252 252 253 254 255 257 259 261 264 267 269 272 274 276 278 280 282 284 286 289 292 295 297 299 300 302 304 305 307
249 249 249 248 248 249 251 253 255 256 257 257 256 255 254 253 253 253 254 255 256 258 260 262 265 268 270 272 274 276 279 280 282 284 287 290 293 296 298 300 301 303 305 307
248 248 248 248 249 251 253 254 256 258 259 259 259 257 256 256 255 255 255 256 257 257 259 261 264 267 269 270 272 274 276 278 281 283 286 288 292 295 297 299 301 303 305 306
247 247 249 250 251 253 256 258 259 260 261 262 261 260 260 259 258 257 256 257 257 258 259 261 263 266 267 268 271 273 275 278 280 282 285 288 290 293 295 298 299 301 304 306
247 249 251 252 254 256 258 261 263 263 263 263 263 262 261 260 259 258 258 258 258 258 259 261 262 265 266 268 270 273 275 277 280 281 284 287 289 292 294 296 298 300 303 305
246 249 252 254 257 259 261 264 265 265 265 265 264 263 263 263 262 260 259 259 260 260 261 262 263 265 266 268 270 272 275 277 279 281 284 286 288 290 292 294 296 299 302 305
251 253 254 257 259 261 262 264 266 267 268 268 268 267 267 267 265 263 262 261 261 262 262 264 265 266 267 268 270 271 273 276 278 281 284 286 288 289 291 293 295 299 302 305
253 256 258 259 261 262 262 263 266 268 270 270 271 272 273 272 271 268 267 265 265 265 265 266 266 267 268 269 270 272 275 277 278 280 282 285 287 288 290 293 296 299 302 305
255 256 258 260 261 261 262 263 265 268 271 273 274 274 275 276 275 273 272 270 270 270 270 270 269 269 270 270 271 272 274 275 277 279 281 283 285 288 291 294 296 299 301 304
255 255 257 259 259 260 263 265 266 267 269 272 274 276 277 277 277 276 275 274 274 274 273 273 273 273 272 273 273 275 276 277 279 280 281 283 285 288 291 294 296 299 301 304
256 256 257 258 259 261 263 265 268 270 272 274 276 278 278 278 277 277 276 276 275 275 275 275 276 276 275 276 277 278 279 279 280 281 282 284 287 290 292 294 297 300 302 305
258 259 260 261 262 264 266 268 270 273 274 274 275 276 277 277 277 276 276 276 276 275 275 275 276 277 279 280 280 281 281 281 282 283 284 286 289 291 293 295 298 300 302 306
Height
5636 5638 5639 5641 5643 5646 5648 5652 5655 5657 5659 5663 5666 5669 5672 5674 5677 5679 5682 5684 5686 5688 5689 5690 5691 5691 5691 5691 5690 5689 5688 5686 5685 5683 5681 5679 5676 5673 5669 5665 5659 5654 5648 5642
5632 5634 5636 5638 5640 5642 5644 5647 5650 5653 5656 5658 5662 5664 5667 5669 5672 5674 5677 5679 5680 5682 5683 5684 5684 5684 5684 5683 5682 5681 5680 5678 5677 5675 5673 5671 5669 5665 5661 5657 5652 5647 5641 5635
5630 5631 5632 5635 5637 5639 5641 5643 5646 5648 5653 5654 5657 5660 5663 5665 5667 5669 5672 5674 5675 5676 5677 5677 5678 5677 5677 5676 5675 5674 5672 5671 5669 5668 5666 5664 5661 5658 5654 5650 5645 5640 5635 5629
5627 5629 5630 5635 5634 5635 5637 5640 5642 5645 5647 5650 5653 5656 5658 5660 5662 5665 5667 5668 5670 5671 5671 5671 5671 5671 5670 5669 5668 5667 5666 5664 5663 5661 5659 5657 5654 5651 5648 5644 5639 5635 5630 5625
5624 5625 5628 5630 5631 5632 5635 5637 5639 5641 5644 5646 5648 5651 5653 5656 5658 5660 5662 5663 5664 5665 5665 5665 5665 5665 5664 5663 5662 5661 5660 5658 5657 5655 5653 5651 5648 5645 5641 5638 5634 5629 5625 5620
5621 5623 5625 5629 5628 5629 5633 5634 5636 5638 5640 5642 5644 5647 5650 5651 5653 5655 5657 5658 5659 5660 5660 5660 5660 5659 5658 5658 5657 5656 5654 5653 5651 5649 5647 5645 5642 5639 5636 5632 5628 5624 5620 5616
5618 5620 5622 5625 5625 5627 5630 5633 5633 5634 5636 5638 5640 5643 5645 5646 5648 5650 5651 5653 5654 5655 5655 5655 5655 5654 5653 5652 5651 5650 5649 5647 5646 5644 5642 5639 5637 5634 5630 5627 5623 5619 5615 5612
5614 5617 5621 5621 5622 5624 5626 5627 5628 5630 5632 5634 5635 5637 5639 5641 5643 5645 5646 5648 5649 5649 5650 5650 5649 5649 5648 5647 5646 5645 5644 5642 5641 5639 5636 5634 5631 5628 5625 5622 5618 5615 5611 5608
5612 5615 5615 5616 5617 5619 5621 5623 5624 5626 5628 5629 5631 5633 5634 5636 5638 5639 5641 5642 5643 5644 5644 5644 5644 5643 5643 5642 5641 5640 5639 5637 5635 5633 5631 5628 5626 5623 5620 5617 5614 5610 5607 5603
5606 5608 5609 5611 5612 5614 5616 5618 5619 5621 5623 5624 5626 5628 5629 5631 5632 5634 5635 5636 5637 5638 5639 5639 5638 5638 5637 5637 5636 5634 5633 5632 5630 5628 5625 5623 5620 5618 5615 5612 5609 5605 5602 5599
5600 5602 5604 5605 5607 5609 5610 5612 5614 5615 5617 5619 5620 5622 5624 5625 5626 5628 5629 5630 5631 5632 5632 5632 5632 5632 5631 5631 5630 5629 5627 5626 5624 5622 5620 5617 5615 5612 5610 5607 5603 5600 5597 5593
5594 5596 5598 5599 5601 5602 5604 5606 5607 5609 5611 5612 5614 5615 5617 5618 5620 5621 5622 5623 5624 5625 5626 5626 5626 5625 5625 5624 5623 5623 5621 5620 5618 5616 5614 5612 5609 5607 5604 5601 5597 5594 5591 5587
5587 5588 5590 5592 5594 5595 5597 5599 5600 5602 5603 5605 5607 5608 5610 5611 5613 5614 5615 5616 5617 5618 5619 5619 5619 5618 5618 5617 5617 5616 5615 5613 5612 5610 5608 5606 5603 5601 5598 5595 5591 5588 5584 5581
5579 5580 5582 5584 5586 5588 5589 5591 5593 5594 5596 5598 5599 5601 5602 5604 5605 5607 5608 5609 5610 5610 5611 5611 5611 5611 5611 5610 5609 5609 5608 5606 5605 5603 5601 5599 5597 5594 5591 5588 5585 5581 5577 5574
5571 5573 5575 5577 5578 5580 5582 5584 5585 5587 5588 5590 5591 5593 5594 5596 5597 5599 5600 5601 5602 5602 5603 5603 5603 5603 5603 5602 5602 5601 5600 5599 5598 5596 5594 5592 5590 5587 5584 5581 5578 5574 5570 5566
5562 5565 5567 5569 5571 5573 5574 5576 5578 5579 5580 5582 5583 5584 5586 5587 5589 5590 5591 5592 5593 5594 5595 5595 5595 5595 5595 5594 5594 5593 5592 5591 5590 5588 5587 5584 5582 5579 5576 5573 5570 5566 5563 5559
5555 5557 5559 5561 5564 5566 5567 5569 5570 5571 5573 5574 5575 5576 5577 5578 5580 5581 5582 5583 5584 5585 5586 5586 5586 5586 5586 5586 5586 5585 5584 5583 5582 5580 5579 5576 5574 5572 5569 5565 5562 5558 5555 5550
5548 5551 5553 5555 5557 5559 5560 5561 5563 5564 5565 5566 5567 5567 5568 5569 5570 5571 5573 5574 5575 5576 5576 5577 5577 5577 5577 5577 5577 5576 5575 5574 5573 5572 5570 5568 5566 5563 5560 5557 5554 5550 5546 5542
5543 5545 5546 5548 5550 5552 5553 5554 5555 5556 5557 5557 5558 5559 5560 5560 5561 5562 5563 5564 5565 5566 5566 5567 5567 5568 5568 5568 5568 5567 5567 5566 5565 5563 5562 5560 5557 5555 5552 5549 5545 5542 5538 5534
5538 5539 5541 5542 5544 5545 5546 5547 5548 5548 5549 5549 5549 5550 5551 5551 5552 5553 5554 5555 5555 5556 5557 5557 5558 5558 5558 5558 5558 5558 5558 5557 5556 5554 5553 5551 5549 5546 5543 5540 5537 5533 5529 5525
5533 5534 5536 5537 5538 5539 5540 5541 5541 5541 5541 5541 5542 5542 5542 5543 5543 5544 5544 5545 5546 5547 5547 5548 5549 5549 5549 5549 5549 5549 5548 5548 5546 5545 5544 5542 5539 5537 5534 5531 5528 5525 5521 5516
5529 5530 5531 5532 5533 5534 5534 5534 5535 5534 5534 5534 5534 5534 5535 5535 5535 5535 5536 5537 5537 5538 5538 5539 5539 5540 5540 5540 5540 5540 5539 5538 5537 5536 5534 5532 5530 5528 5525 5522 5519 5516 5512 5508
5524 5525 5526 5527 5527 5528 5528 5528 5529 5528 5528 5528 5528 5528 5528 5528 5528 5528 5528 5528 5528 5529 5529 5530 5530 5530 5530 5530 5530 5530 5529 5528 5527 5526 5524 5523 5521 5519 5516 5513 5510 5507 5503 5499
5519 5519 5520 5521 5521 5522 5522 5522 5522 5522 5522 5522 5522 5522 5521 5521 5521 5521 5521 5520 5520 5520 5521 5521 5521 5521 5521 5521 5521 5520 5519 5518 5517 5516 5515 5513 5511 5509 5507 5504 5501 5498 5494 5490
5512 5513 5514 5514 5515 5515 5516 5516 5516 5516 5516 5516 5516 5515 5515 5514 5514 5514 5513 5513 5513 5513 5512 5512 5512 5512 5512 5511 5511 5510 5510 5509 5508 5507 5505 5504 5502 5500 5498 5495 5492 5489 5485 5481
5505 5506 5507 5507 5508 5508 5509 5509 5509 5509 5509 5509 5508 5508 5508 5507 5507 5506 5506 5506 5505 5505 5505 5504 5504 5504 5503 5503 5502 5502 5501 5500 5499 5498 5497 5495 5493 5491 5488 5486 5483 5479 5475 5471
5497 5498 5499 5499 5500 5500 5501 5501 5501 5501 5501 5500 5500 5500 5499 5499 5499 5498 5498 5498 5497 5497 5497 5496 5496 5496 5495 5495 5494 5493 5492 5491 5490 5489 5488 5486 5484 5482 5479 5477 5474 5470 5466 5462